Time,TemperatureF,DewpointF,PressureIn,WindDirection,WindDirectionDegrees,WindSpeedMPH,WindSpeedGustMPH,Humidity,HourlyPrecipIn,Conditions,Clouds,dailyrainin,SolarRadiationWatts/m^2,SoftwareType,DateUTC
2013-03-08 00:11:00,33.0,31.0,-100.00,SSE,148,1.0,2.0,94,-99.99,,,0.00,0.000000,,2013-03-08 08:11:00,
2013-03-08 01:11:00,33.0,32.0,-100.00,SE,137,1.0,2.0,95,-99.99,,,0.00,0.000000,,2013-03-08 09:11:00,
2013-03-08 02:11:00,31.0,30.0,-100.00,SE,136,0.0,1.0,96,-99.99,,,0.00,0.000000,,2013-03-08 10:11:00,
2013-03-08 03:11:00,30.0,29.0,-100.00,SE,131,2.0,3.0,96,-99.99,,,0.00,0.000000,,2013-03-08 11:11:00,
2013-03-08 04:11:00,28.0,28.0,-100.00,SE,146,2.0,3.0,96,-99.99,,,0.00,0.000000,,2013-03-08 12:11:00,
2013-03-08 05:11:00,28.0,27.0,-100.00,SSE,156,1.0,1.0,96,-99.99,,,0.00,0.000000,,2013-03-08 13:11:00,
2013-03-08 06:11:00,28.0,27.0,-100.00,SE,140,1.0,2.0,96,-99.99,,,0.00,0.000000,,2013-03-08 14:11:00,
2013-03-08 07:11:00,27.0,26.0,-100.00,SSE,149,1.0,2.0,96,-99.99,,,0.00,0.230000,,2013-03-08 15:11:00,
2013-03-08 08:11:00,28.0,27.0,-100.00,SE,128,1.0,2.0,96,-99.99,,,0.00,17.430000,,2013-03-08 16:11:00,
2013-03-08 09:11:00,33.0,32.0,-100.00,SSE,165,1.0,2.0,94,-99.99,,,0.00,248.710007,,2013-03-08 17:11:00,
2013-03-08 10:11:00,39.0,34.0,-100.00,SSW,192,1.0,2.0,79,-99.99,,,0.00,405.260010,,2013-03-08 18:11:00,
2013-03-08 12:11:00,48.0,35.0,-100.00,WNW,288,1.0,4.0,61,-99.99,,,0.00,627.119995,,2013-03-08 20:11:00,
2013-03-08 13:11:00,53.0,34.0,-100.00,NNW,341,3.0,8.0,48,-99.99,,,0.00,665.590027,,2013-03-08 21:11:00,
2013-03-08 14:11:00,56.0,31.0,-100.00,NE,49,3.0,9.0,39,-99.99,,,0.00,648.159973,,2013-03-08 22:11:00,
2013-03-08 15:11:00,57.0,29.0,-100.00,ESE,108,4.0,9.0,34,-99.99,,,0.00,580.979980,,2013-03-08 23:11:00,
2013-03-08 16:11:00,57.0,28.0,-100.00,East,97,4.0,7.0,32,-99.99,,,0.00,457.329987,,2013-03-09 00:11:00,
2013-03-08 17:12:00,58.0,27.0,-100.00,ENE,71,3.0,8.0,30,-99.99,,,0.00,297.869995,,2013-03-09 01:12:00,
2013-03-08 19:11:00,51.0,31.0,-100.00,SSE,159,2.0,4.0,46,-99.99,,,0.00,3.600000,,2013-03-09 03:11:00,
2013-03-08 20:11:00,44.0,32.0,-100.00,SSE,148,1.0,2.0,63,-99.99,,,0.00,0.000000,,2013-03-09 04:11:00,
2013-03-08 21:11:00,40.0,32.0,-100.00,West,279,2.0,4.0,72,-99.99,,,0.00,0.000000,,2013-03-09 05:11:00,
2013-03-08 22:11:00,37.0,31.0,-100.00,SSW,202,2.0,4.0,79,-99.99,,,0.00,0.000000,,2013-03-09 06:11:00,
2013-03-08 23:11:00,33.0,30.0,-100.00,South,170,1.0,3.0,87,-99.99,,,0.00,0.000000,,2013-03-09 07:11:00,